GFSMW_con_lsi_096.txt.gz
Lid_Strength_Index
4 4 4 4 4 3 3 2 2 2 2 3 2 1 1 1 1 1 1 0 0 0 1 1 1 2 2 2 2 3 3 4 3 4 3 3 4 4 4 4 4 4 4
7 5 5 5 5 4 3 3 2 2 2 2 2 1 1 1 0 1 1 0 0 0 0 1 1 1 2 2 3 3 3 3 3 3 4 6 5 4 4 4 5 5 6
6 6 6 6 5 4 3 3 2 2 2 2 3 2 2 1 1 2 1 1 0 0 1 0 1 1 1 2 2 2 3 3 2 2 4 7 8 5 5 6 6 7 7
10 8 7 7 6 5 4 2 2 2 2 2 2 3 2 2 2 1 0 1 0 0 0 0 1 1 1 2 2 2 2 2 4 4 4 4 4 7 9 8 7 8 7
12 10 9 7 7 6 4 3 2 2 2 2 2 3 4 4 2 1 1 1 1 1 1 1 2 2 3 3 2 3 4 5 4 4 6 7 8 9 9 11 11 11 10
12 13 11 9 8 8 7 4 3 2 2 2 2 3 3 3 3 2 2 3 4 5 5 5 5 5 5 5 6 7 8 8 8 8 9 10 10 10 11 12 14 14 13
13 13 11 10 9 8 9 9 5 2 2 2 2 3 3 3 3 2 2 4 6 6 7 7 7 7 8 8 9 9 10 11 11 11 12 12 11 11 11 12 14 15 14
12 12 10 9 9 8 8 10 10 5 2 2 2 2 3 3 3 2 3 4 6 7 8 9 9 10 10 10 11 11 12 12 13 14 13 13 13 13 12 13 13 16 16
11 10 9 8 8 8 8 8 9 8 3 2 1 2 3 5 5 6 6 7 8 9 10 10 12 12 11 11 12 13 13 14 14 14 14 14 14 13 13 13 13 14 17
11 10 9 9 8 8 8 8 8 7 5 3 2 4 6 8 8 8 9 10 11 11 11 13 13 13 12 12 13 14 15 15 15 15 15 15 14 14 14 14 14 14 14
11 11 10 9 9 9 9 8 8 6 6 5 6 7 9 10 10 10 11 11 12 12 13 13 14 14 13 13 14 15 15 16 16 15 15 15 15 15 15 15 15 15 14
11 11 11 10 10 10 9 8 9 7 7 7 7 9 11 11 12 11 12 12 12 13 14 14 14 14 14 15 15 16 16 16 16 16 16 16 14 16 16 15 15 15 14
11 11 11 11 11 11 11 9 9 10 9 9 9 11 12 12 12 13 14 13 14 15 15 15 15 15 16 16 16 16 16 16 15 15 16 16 16 17 16 16 16 15 14
11 11 12 12 12 12 12 11 11 10 10 10 11 12 13 13 13 13 15 15 15 15 15 16 16 16 16 16 16 16 16 16 15 15 15 15 16 17 17 16 16 14 14
11 11 11 12 12 12 12 12 12 11 11 11 11 13 14 14 15 15 15 15 15 16 16 16 17 17 16 15 16 15 16 16 16 15 15 15 16 14 14 14 14 14 14
10 11 11 11 11 12 12 12 13 13 12 12 13 14 14 16 15 15 16 16 16 16 17 17 17 18 16 13 13 15 15 15 15 15 16 16 17 15 13 13 12 12 14
10 11 11 11 11 11 12 13 13 14 15 14 15 15 15 15 16 16 16 16 17 17 17 17 18 18 17 13 13 13 15 15 15 16 15 15 15 16 15 13 12 12 12
10 10 10 10 10 11 12 12 14 14 15 15 15 16 16 16 16 17 17 17 18 18 18 18 18 18 16 14 14 13 15 15 15 16 16 16 16 16 15 14 14 14 13
9 8 8 9 10 11 11 13 14 15 15 15 15 16 15 16 17 17 18 18 18 19 19 18 20 20 19 15 13 14 16 16 16 16 16 16 16 15 13 15 18 16 13
8 9 9 9 10 11 11 13 14 14 14 15 15 15 16 16 17 18 18 18 19 19 19 19 21 21 20 15 14 15 16 18 17 17 16 16 15 14 13 16 18 17 14
9 9 9 10 10 11 12 13 14 14 13 15 16 16 17 17 17 18 19 19 20 21 22 21 21 20 19 18 15 15 16 17 18 19 18 17 15 14 13 12 17 16 12
10 9 9 10 10 11 12 13 13 13 15 16 16 17 17 17 18 19 20 21 21 21 22 21 21 20 19 18 17 16 15 15 19 19 18 18 14 13 13 13 12 11 11
11 11 11 13 13 13 12 12 13 15 16 16 18 19 19 19 19 21 21 21 21 20 21 20 21 20 19 19 18 17 16 15 17 17 16 14 14 14 14 13 12 13 11
15 16 15 15 16 14 13 13 17 16 16 17 19 19 20 21 21 20 20 21 20 20 20 20 20 21 21 21 20 19 18 17 17 16 18 17 15 14 13 15 14 14 15
17 17 16 17 17 17 17 17 16 16 17 18 20 20 20 21 21 20 20 20 20 19 20 20 21 22 22 21 17 17 18 19 18 20 23 22 20 18 17 17 15 16 17
17 17 18 18 19 18 19 18 17 16 18 20 20 20 21 21 21 21 22 18 18 18 18 18 19 20 19 17 17 16 16 15 16 24 24 24 21 21 20 18 16 14 14

GFSMW_con_lsi_102.txt.gz
Lid_Strength_Index
3 2 2 1 1 1 1 1 1 0 -0 0 1 0 1 -0 -0 -1 -1 -1 -1 -0 -0 -1 -1 -0 0 -0 1 0 0 0 -0 1 1 -0 0 0 1 2 4 3 7
4 3 2 2 2 1 1 1 1 1 0 0 0 -0 0 -0 -0 -1 -1 -1 -1 -0 -0 -0 -1 -1 -0 1 1 1 1 1 -0 2 2 3 2 1 2 1 4 6 7
4 4 3 2 2 2 1 1 1 1 1 -0 -0 -0 -0 -0 0 0 -0 -1 -0 -0 -0 -0 -0 -1 -0 0 0 1 1 2 0 0 2 4 5 5 2 4 5 8 8
4 3 3 3 2 2 1 1 1 0 0 -0 0 1 1 2 1 0 -0 -0 -1 -0 -0 -0 -0 -1 -0 -0 0 0 0 1 2 1 2 2 3 6 7 6 6 8 9
3 4 3 3 2 1 1 1 1 1 0 0 0 1 1 1 0 0 0 0 -0 -1 -1 -0 -0 -0 0 1 1 1 1 0 1 2 2 3 4 4 7 10 10 9 9
5 3 3 2 2 1 1 1 1 1 0 0 0 1 1 1 1 1 1 1 0 0 -0 1 1 1 2 2 3 2 2 2 2 4 5 7 7 8 9 10 11 11 10
7 6 5 3 3 2 2 1 1 2 1 1 1 1 1 1 1 1 1 2 2 3 2 2 4 4 5 5 4 4 4 5 6 7 8 8 9 9 9 10 11 11 10
9 7 6 5 4 3 2 2 2 2 1 1 1 1 0 1 1 1 1 1 1 2 3 4 5 6 7 7 6 6 7 7 8 9 9 9 9 9 10 11 11 12 11
9 10 9 7 7 6 4 2 2 2 1 1 1 1 1 1 1 0 0 1 2 5 5 6 7 8 8 8 7 8 9 9 9 9 9 9 10 10 10 10 10 12 13
10 10 10 9 7 7 6 4 2 2 1 1 1 1 1 1 0 0 1 3 5 7 8 9 9 9 9 9 9 9 10 10 10 10 10 10 11 11 11 11 11 11 12
10 10 11 9 7 6 6 5 5 3 1 1 1 1 1 1 1 2 3 4 8 9 10 10 10 11 10 10 10 10 11 11 11 11 10 11 12 12 12 12 12 12 12
10 10 10 9 8 7 6 5 5 5 3 1 1 1 1 3 4 4 6 8 9 11 11 12 12 12 11 11 11 12 11 11 11 11 12 13 13 12 12 12 12 12 12
9 9 9 9 9 8 7 7 5 5 5 4 1 3 4 4 5 6 8 9 11 12 13 13 12 12 11 11 11 12 12 11 11 12 13 13 12 13 13 12 13 13 12
9 9 9 9 9 8 8 7 6 5 5 4 4 3 4 4 5 7 8 10 12 12 14 13 13 12 11 12 12 12 12 12 11 12 13 13 13 13 13 13 13 13 12
9 9 9 9 9 8 8 8 7 6 5 5 5 5 6 6 7 9 10 12 13 13 14 14 13 12 12 12 12 12 12 12 12 13 13 13 14 14 13 13 13 13 13
9 9 9 9 9 8 8 8 8 8 7 6 6 6 9 11 11 11 12 13 15 15 14 14 14 13 13 12 12 12 12 13 14 14 13 14 15 14 14 13 13 13 13
8 8 8 8 8 8 8 9 8 9 8 8 10 11 11 12 12 13 14 14 16 15 15 14 13 13 12 12 12 12 13 14 14 14 14 14 14 15 13 13 13 13 12
8 8 7 8 8 8 9 8 10 11 11 10 11 12 13 13 14 14 15 17 16 16 16 15 13 13 12 11 11 13 14 14 14 14 14 14 15 14 14 13 13 13 13
7 8 7 8 8 8 8 10 11 12 12 13 12 12 12 14 15 15 15 15 16 17 15 16 14 13 12 11 12 14 14 15 15 15 15 15 15 14 14 13 14 13 13
8 8 7 8 9 8 8 10 11 12 12 13 13 13 14 14 14 15 15 16 16 15 17 15 14 14 13 12 13 14 14 15 15 15 16 16 15 14 13 13 13 14 13
8 8 8 8 9 9 11 11 11 12 11 12 13 13 13 13 13 15 15 15 16 16 15 16 16 15 14 13 12 13 14 15 16 16 16 15 15 14 13 12 12 13 12
10 9 9 9 9 11 11 12 12 12 13 14 14 14 13 14 15 15 16 15 15 16 16 16 16 16 15 14 13 14 15 15 16 16 16 15 15 14 13 13 12 12 12
11 11 11 11 11 12 11 12 12 13 14 14 14 14 14 14 15 16 16 16 15 16 17 17 18 18 17 16 15 15 15 15 16 16 15 14 13 14 14 14 14 14 14
13 13 12 12 12 13 13 12 13 13 14 14 14 15 15 16 15 15 15 15 16 16 17 17 18 18 19 18 17 17 15 15 16 15 15 15 15 15 14 16 16 16 15
14 14 14 14 14 14 13 13 14 14 14 13 14 14 14 15 15 15 15 16 15 15 17 16 17 18 19 18 17 17 17 16 15 15 16 17 17 17 17 17 17 17 16
15 14 15 15 15 15 15 14 14 13 14 15 16 15 16 16 16 17 17 16 16 15 15 15 15 17 16 16 16 15 15 14 14 17 18 18 18 19 19 19 19 18 17

GFSMW_con_lsi_105.txt.gz
Lid_Strength_Index
3 2 2 1 1 1 1 1 1 0 0 0 1 1 1 0 -0 -1 -1 -1 -1 -1 -1 -1 -1 -1 -0 -0 -0 0 1 1 -0 1 1 1 0 1 2 2 4 7 6
3 3 2 2 2 1 1 1 1 0 0 0 0 0 0 0 -0 -1 -1 -1 -1 -1 -1 -1 -0 -1 -0 0 0 0 1 1 0 2 2 4 2 1 3 3 5 7 6
4 3 3 3 2 2 1 1 1 0 0 0 0 0 0 0 1 0 0 -1 -1 -1 -1 -0 -1 -0 -0 0 0 0 1 2 1 0 2 4 5 5 3 5 6 7 7
4 3 3 3 2 2 1 1 1 1 0 0 1 1 2 2 1 1 0 -0 -1 -1 -1 -0 -0 -0 -1 0 0 -0 0 1 2 1 2 2 3 7 7 5 6 7 8
4 3 3 3 2 2 1 1 1 1 0 0 1 1 2 1 1 1 1 0 -0 -1 -1 -1 -1 -0 -0 -0 1 1 1 0 1 1 2 3 5 5 7 9 8 8 8
4 3 2 2 2 1 1 1 1 1 1 1 1 1 1 1 1 1 1 1 0 -0 -0 -0 -0 -0 0 1 2 2 2 1 1 2 3 5 7 7 9 9 9 10 9
5 4 3 3 3 2 2 2 2 2 1 1 1 1 1 1 1 1 1 1 1 1 0 0 1 2 2 4 4 4 2 2 4 5 7 7 8 8 9 9 10 10 9
7 7 6 3 3 2 2 2 2 2 1 1 1 1 1 1 1 1 1 1 1 1 -0 1 2 3 4 6 5 5 5 5 6 7 8 9 9 9 9 9 10 11 11
8 7 6 6 4 2 2 2 2 2 1 1 1 1 1 1 1 1 0 1 0 1 2 3 4 5 6 7 7 7 8 7 7 8 9 9 10 9 9 9 9 11 12
6 7 7 6 6 5 4 2 1 2 1 1 1 1 1 1 1 1 1 1 1 3 4 5 6 7 8 8 7 8 8 9 9 9 10 10 10 10 9 9 10 11 11
8 8 7 7 7 7 6 6 4 2 2 1 1 1 1 1 1 1 1 1 2 4 5 7 8 8 9 9 9 9 9 10 10 10 10 11 10 11 10 10 11 11 12
8 8 8 8 8 8 7 8 7 5 2 1 1 1 1 1 1 1 1 2 3 5 6 8 10 11 10 10 10 11 10 11 11 11 11 12 11 11 11 11 11 12 12
7 7 7 8 8 7 7 7 7 7 5 3 1 1 2 1 1 1 3 5 6 7 9 11 11 12 11 11 11 11 11 11 11 11 12 12 12 12 11 12 12 12 13
7 7 7 7 7 7 7 7 7 6 6 6 4 2 2 2 2 3 5 7 8 10 11 11 12 12 12 12 11 12 11 11 11 11 11 12 11 11 12 12 12 12 13
7 7 7 7 7 7 7 6 6 6 6 6 6 5 4 4 5 8 8 10 11 10 11 12 13 13 13 13 12 12 12 12 12 12 12 12 12 12 12 12 13 13 13
7 7 7 7 7 7 7 7 6 6 6 6 7 6 7 9 10 10 10 12 13 13 12 14 14 15 14 12 12 13 12 13 13 13 13 12 14 13 13 13 13 12 14
7 7 6 7 6 6 6 7 6 6 7 7 10 10 12 13 12 12 13 13 13 14 14 13 15 14 15 12 12 13 13 13 12 13 13 13 14 14 14 13 13 13 12
6 6 6 6 5 5 6 6 6 7 9 9 11 12 12 13 14 14 13 13 14 14 14 14 15 15 15 12 13 12 13 13 13 13 13 14 15 14 14 14 14 13 13
6 6 6 6 6 5 6 6 9 9 10 11 11 12 13 14 15 14 15 15 15 15 15 15 15 15 13 13 12 13 13 13 14 14 14 14 14 14 14 14 14 14 13
7 7 6 6 6 6 7 9 10 10 11 11 11 12 13 14 14 15 15 15 14 15 16 16 15 14 14 11 13 12 13 15 15 15 15 15 14 14 14 15 14 15 14
8 7 6 7 7 8 9 10 11 11 11 12 13 13 13 14 13 13 14 15 15 16 15 15 15 14 13 13 12 13 14 14 15 15 16 15 15 14 14 13 13 13 12
9 9 8 8 8 10 10 11 11 12 13 13 14 14 14 14 14 14 14 14 15 16 16 16 17 15 14 13 12 12 13 13 14 15 15 15 15 14 14 13 12 12 12
11 11 11 11 11 12 12 12 12 13 14 14 15 14 14 14 14 15 15 15 15 15 16 17 17 17 16 14 12 13 13 13 15 15 15 15 14 13 13 13 13 14 15
13 13 13 13 14 13 13 13 13 14 14 14 14 14 14 14 14 14 15 15 16 16 16 17 17 17 17 16 15 14 14 14 15 15 15 15 14 14 14 15 15 16 16
14 14 15 15 15 14 14 14 14 14 14 13 14 14 14 14 15 15 15 15 14 14 15 15 15 17 18 16 15 15 16 16 16 16 15 16 17 17 16 16 17 17 17
15 15 16 16 16 16 16 16 15 14 14 14 14 14 14 15 15 15 16 15 14 14 13 13 14 15 15 15 15 15 15 15 14 16 17 17 17 17 17 17 18 18 18

GFSMW_con_lsi_111.txt.gz
Lid_Strength_Index
4 3 2 2 2 4 3 2 2 1 1 2 2 2 2 2 1 1 0 0 0 0 1 1 2 2 2 2 2 2 2 2 1 3 2 3 4 6 9 10 10 9 9
7 4 4 3 2 4 3 3 1 1 1 1 1 2 2 2 1 1 1 0 1 1 1 1 2 1 2 2 2 2 3 2 1 4 3 5 4 7 9 11 10 10 9
10 5 4 3 3 3 5 3 2 1 1 1 1 2 2 2 2 2 1 0 0 1 1 1 1 1 1 1 2 2 2 2 1 2 4 7 7 7 9 12 11 11 10
10 9 5 4 3 2 5 4 2 1 1 1 1 1 2 3 1 1 1 1 0 1 1 1 1 1 1 1 1 1 2 2 2 2 3 4 7 9 11 11 12 11 10
8 9 6 4 3 2 4 5 3 2 1 1 1 1 2 1 1 1 2 1 0 1 1 1 1 1 1 1 1 1 1 1 2 3 4 5 8 8 11 13 14 12 11
7 7 8 4 3 2 2 4 4 2 2 1 1 1 2 2 2 2 1 1 0 1 1 1 2 1 1 1 1 1 1 2 2 3 4 6 8 9 12 13 14 14 12
7 7 9 8 5 4 2 2 3 3 3 3 2 1 2 2 2 1 1 1 1 1 1 1 2 2 1 1 1 2 2 2 2 3 4 6 8 9 11 13 14 15 13
9 7 7 8 5 4 3 2 2 2 2 2 2 2 1 1 1 1 1 1 1 1 1 1 1 1 1 1 2 2 2 3 4 5 7 8 9 11 11 12 13 15 14
9 10 8 9 7 4 4 3 2 2 2 2 2 2 2 2 2 1 1 1 1 1 1 2 2 2 2 2 3 3 4 4 5 7 9 9 10 11 12 12 12 13 15
11 10 11 10 9 6 4 3 2 2 2 2 1 2 2 2 2 1 1 1 1 2 2 2 2 2 3 4 5 6 7 7 9 9 11 11 11 12 12 12 12 12 13
12 12 12 11 10 10 7 5 3 3 3 2 2 2 2 2 2 2 1 1 2 2 3 3 3 4 5 6 6 6 8 8 10 12 10 12 12 12 13 13 13 13 13
11 11 10 10 10 11 11 10 9 6 4 4 3 3 3 3 2 2 2 2 3 2 3 3 4 5 6 7 7 9 9 9 12 12 13 12 15 14 13 13 13 13 13
11 10 10 11 11 11 10 11 10 10 9 7 5 4 4 3 3 2 2 3 3 3 3 4 5 7 8 8 8 8 10 10 11 11 13 14 14 15 14 13 13 13 12
10 11 11 11 10 10 10 10 9 9 9 9 9 7 6 5 4 4 5 6 6 6 6 5 6 7 8 8 8 9 11 11 11 12 13 13 13 13 14 15 14 13 14
10 11 11 11 10 10 10 9 9 9 8 8 8 8 8 6 5 6 6 7 7 7 8 8 9 9 9 9 9 10 11 12 13 13 13 14 14 13 13 14 14 15 15
9 10 10 11 10 10 10 9 9 8 8 8 8 9 9 8 9 9 10 9 10 10 10 10 10 10 9 10 11 11 12 14 14 14 15 14 15 13 12 12 12 13 14
9 10 10 10 11 11 10 10 9 9 9 9 11 11 11 10 11 12 11 11 11 12 12 12 13 13 12 11 11 12 13 14 14 14 15 15 15 14 13 12 11 12 11
9 10 10 10 10 10 9 9 9 10 11 12 12 12 12 12 12 11 11 12 12 12 13 13 13 13 14 11 11 12 14 14 14 14 15 15 15 14 14 15 14 14 14
10 10 10 10 10 10 10 11 12 12 12 12 12 12 12 15 13 13 13 12 13 14 13 14 13 14 14 11 11 12 14 15 14 14 14 14 15 14 14 15 15 15 15
11 10 10 11 11 12 11 13 13 13 12 12 12 13 14 15 13 13 14 15 15 14 14 14 14 14 14 11 11 13 14 14 15 15 15 14 15 14 13 15 15 16 16
11 11 11 12 12 13 13 13 14 14 14 14 14 15 16 14 13 13 15 14 15 15 14 15 15 14 14 13 11 12 14 14 15 15 16 15 14 13 12 13 15 15 15
13 12 13 14 14 14 14 14 14 15 16 17 17 17 15 14 13 13 14 14 14 15 15 15 15 15 15 13 12 11 13 13 16 15 16 15 13 12 12 13 13 13 14
15 15 15 15 16 16 15 15 16 16 17 18 19 15 17 13 14 13 14 15 14 15 16 16 16 16 15 14 12 12 12 13 15 15 15 14 13 12 13 12 13 14 14
16 17 17 18 18 18 18 17 17 16 15 19 19 19 19 19 17 14 14 14 14 15 15 15 15 16 15 14 13 13 13 13 14 14 14 14 13 13 14 14 13 14 15
18 18 19 19 20 20 20 21 19 19 18 19 19 19 20 21 20 18 16 15 15 14 15 15 15 16 16 14 13 13 14 14 14 15 15 15 15 15 15 16 16 15 16
19 20 21 21 22 23 23 22 22 20 20 19 19 20 20 21 20 21 21 14 14 13 12 12 14 15 14 13 12 12 12 13 13 16 16 17 16 17 17 17 17 17 17

GFSMW_con_lsi_114.txt.gz
Lid_Strength_Index
4 3 3 2 2 3 2 2 2 1 1 2 3 4 3 3 3 2 1 1 1 1 2 2 2 2 3 2 2 3 3 3 2 2 3 3 5 9 10 10 9 9 10
7 5 3 3 2 3 3 3 2 1 1 1 2 3 2 3 2 1 1 0 1 1 1 2 2 2 3 3 3 3 3 3 2 3 4 5 6 8 10 10 9 11 11
11 7 4 3 2 3 4 3 2 2 1 1 2 3 3 3 2 2 2 1 1 1 1 1 1 2 2 2 3 3 3 3 2 2 4 6 6 8 10 12 11 11 12
8 9 5 4 3 2 3 3 3 2 1 1 1 2 2 3 2 2 1 1 0 1 1 1 1 1 2 2 2 2 2 2 3 3 3 4 6 8 11 12 12 11 12
7 8 8 4 3 3 3 4 3 3 2 1 1 1 2 2 2 1 2 1 1 0 1 1 2 2 2 2 2 3 2 1 2 3 4 5 7 8 10 14 15 13 12
7 7 8 5 4 3 3 4 4 3 2 1 2 1 2 2 2 3 2 2 1 1 0 1 1 2 2 2 2 2 2 2 1 2 4 5 6 8 10 12 15 14 13
8 8 8 8 5 4 3 4 4 4 2 2 1 1 1 1 2 2 2 2 1 1 1 1 2 2 2 2 2 2 2 2 1 2 4 5 6 7 9 11 13 15 13
8 9 8 8 5 3 3 3 5 4 3 2 2 1 1 1 1 1 1 1 1 1 1 1 1 1 2 2 3 2 2 2 2 2 4 5 6 9 10 11 14 15 15
9 9 9 8 8 4 3 2 3 4 4 4 3 2 1 1 1 1 1 1 1 1 1 1 1 1 2 3 3 3 3 2 2 3 4 5 7 9 10 10 11 13 16
10 11 10 10 9 6 3 2 2 3 3 3 3 3 2 2 1 2 2 1 1 1 2 2 2 2 2 3 3 3 2 3 3 4 6 8 10 10 11 11 12 14 16
12 11 11 11 12 10 6 5 4 3 3 2 2 2 2 2 2 2 2 2 1 1 2 2 2 2 2 2 3 3 4 5 4 8 8 8 12 12 14 13 14 14 14
12 11 11 11 11 12 11 8 5 5 4 4 3 3 2 2 3 3 3 2 2 2 2 2 2 3 3 3 4 4 5 6 7 9 10 11 13 14 13 13 14 13 14
11 11 11 11 11 11 11 11 10 10 9 6 5 5 5 3 3 3 3 3 3 3 3 3 3 3 3 4 5 4 6 7 7 8 11 12 13 14 14 13 14 14 14
10 11 11 11 11 11 10 10 10 10 10 10 9 8 7 5 5 4 4 4 3 3 3 3 3 4 5 6 6 6 7 8 8 9 9 10 12 12 13 14 14 14 15
10 11 11 11 11 11 10 10 10 10 9 9 10 10 9 8 7 6 5 5 6 6 6 6 7 7 7 7 7 7 7 8 9 10 11 11 12 12 13 14 14 14 15
10 10 11 11 11 10 10 10 10 10 9 10 10 10 10 10 9 9 9 9 9 10 11 11 11 10 8 9 10 9 9 11 11 13 13 14 15 13 12 12 12 14 14
9 10 10 10 10 10 10 10 10 10 10 10 11 11 12 11 11 11 11 11 11 11 11 11 11 11 10 10 10 11 11 12 13 13 14 14 15 13 14 12 12 13 12
9 9 10 10 10 10 10 10 11 11 12 12 12 12 12 13 13 11 12 12 12 12 12 11 11 11 12 10 9 11 12 12 13 13 13 15 14 13 14 14 14 14 14
9 10 10 10 11 11 11 12 13 13 13 13 13 13 13 16 13 13 12 12 13 13 13 14 13 13 13 11 10 11 13 14 14 14 13 13 14 13 12 13 14 14 15
10 11 11 12 12 13 13 14 14 14 14 14 13 13 14 15 13 13 14 14 14 14 14 14 14 13 13 11 10 12 13 14 15 14 14 14 13 12 12 14 14 15 15
12 13 13 13 14 14 14 14 14 15 15 15 15 15 15 13 13 13 14 14 14 14 14 14 14 14 13 13 10 11 13 14 14 15 15 14 12 12 13 13 15 14 15
14 14 14 16 16 15 14 15 15 16 17 17 16 14 13 13 13 13 13 13 13 14 14 14 14 15 14 12 10 11 12 12 14 14 14 14 12 12 12 13 13 13 14
15 15 16 17 17 16 15 15 16 15 17 17 15 15 14 13 13 13 14 14 14 14 15 15 15 15 15 14 11 11 12 12 14 14 14 13 12 12 12 12 12 14 15
17 17 17 19 19 19 18 18 17 16 20 19 19 19 19 20 15 14 14 14 14 15 15 15 15 15 15 14 13 13 12 13 13 13 13 13 12 12 12 13 12 13 14
18 18 19 20 21 21 21 22 20 20 19 19 20 20 20 21 21 19 18 15 15 14 14 14 14 15 15 14 12 13 13 13 13 14 14 14 14 14 14 14 14 14 14
20 21 22 23 24 24 24 24 23 21 21 20 20 20 20 21 21 21 20 14 13 12 12 12 14 18 13 12 11 11 12 12 12 17 17 16 15 16 15 15 16 15 16

GFSMW_con_lsi_117.txt.gz
Lid_Strength_Index
5 4 4 2 3 3 3 3 2 1 1 4 4 4 4 4 3 2 2 2 2 1 1 2 2 2 3 3 3 3 4 3 3 4 5 5 7 9 9 9 9 10 12
8 6 4 3 3 2 3 3 3 2 1 1 3 3 4 4 3 3 3 2 1 1 1 2 2 2 3 3 3 4 4 4 3 4 4 6 7 9 10 9 10 12 12
11 10 5 4 4 3 3 2 2 2 1 1 2 4 4 5 5 4 2 1 0 1 1 2 2 2 2 2 3 3 4 4 4 3 4 6 7 9 11 11 10 12 13
9 9 7 5 4 3 2 2 2 2 2 1 2 2 3 4 3 3 3 2 1 0 1 1 2 2 2 2 2 3 3 4 4 3 3 4 5 8 11 12 12 12 13
7 8 9 5 4 3 3 3 3 3 2 2 1 2 2 2 3 3 3 3 2 1 0 1 2 2 1 1 2 4 3 3 3 4 5 5 7 7 10 12 13 12 12
7 6 6 7 4 3 3 3 3 3 3 2 2 2 2 2 2 3 3 3 2 2 1 1 1 1 1 2 2 3 3 3 3 2 4 5 6 8 10 11 13 13 12
7 7 7 8 7 5 3 3 4 4 3 3 2 2 2 2 2 2 3 3 3 2 1 1 1 1 1 2 2 3 3 3 3 2 2 3 4 6 9 10 13 13 13
8 8 7 6 7 5 3 3 3 4 3 3 3 2 2 1 1 2 1 2 1 1 1 1 1 1 1 1 2 2 3 3 3 3 2 2 4 6 9 9 12 15 14
8 8 8 8 7 6 4 3 2 3 3 3 3 2 2 2 2 1 1 1 1 1 1 1 1 1 1 2 2 2 3 3 3 3 2 3 3 6 6 8 10 7 15
9 9 9 9 8 7 4 2 2 3 3 3 3 3 3 2 2 2 2 2 1 1 2 2 1 1 1 1 2 2 2 3 3 3 3 3 3 5 7 10 12 11 9
11 11 11 11 11 9 5 4 3 2 3 3 4 4 3 2 2 2 2 2 2 2 2 2 2 2 2 2 2 2 2 3 3 3 4 4 4 6 9 11 11 13 14
13 13 12 11 11 11 8 5 5 4 4 3 3 4 4 4 3 3 3 3 3 3 3 3 3 3 2 2 2 3 3 3 4 4 6 6 7 8 10 10 11 11 13
12 12 12 12 12 11 11 11 9 7 6 5 5 4 4 4 3 3 4 4 4 3 2 2 3 3 2 2 2 2 3 4 4 4 6 6 8 9 9 11 11 12 13
11 12 12 12 11 11 11 10 10 10 10 10 8 7 7 6 6 5 4 3 3 2 3 3 2 2 2 3 3 3 4 4 5 5 5 6 9 9 10 11 12 13 14
11 11 12 11 11 11 10 10 10 10 10 10 10 10 10 9 9 8 8 7 6 5 5 5 5 6 6 6 6 6 6 7 8 9 9 10 11 12 11 12 13 13 15
10 10 11 11 10 10 11 11 11 10 9 9 10 10 10 11 9 9 10 10 10 9 9 10 10 9 8 10 9 9 9 9 10 11 12 12 14 13 12 11 12 12 14
10 10 10 10 10 10 10 10 10 10 10 10 12 12 12 12 12 12 12 12 11 11 11 11 11 11 10 10 9 10 10 11 10 12 13 14 14 14 13 11 12 12 12
10 10 10 10 10 10 10 10 11 11 11 12 13 13 13 13 13 12 12 12 12 13 12 12 12 11 12 10 9 10 11 11 11 12 12 13 13 13 13 13 13 13 13
10 10 10 10 11 11 11 12 13 13 13 14 14 14 14 15 14 13 12 13 13 14 13 14 14 14 13 11 10 10 13 12 13 13 13 13 13 12 11 13 13 13 13
10 11 12 12 12 13 13 13 14 15 15 15 15 15 15 15 14 14 14 15 14 14 14 13 13 14 13 11 10 11 13 13 14 14 14 13 13 11 11 13 13 14 14
12 13 13 14 15 14 14 15 16 16 16 16 16 15 15 14 14 14 14 14 14 14 13 13 13 13 13 12 10 11 13 13 14 14 14 13 11 11 10 11 12 12 13
14 15 16 16 16 15 15 16 16 16 17 16 15 14 14 14 13 13 13 13 13 13 15 14 14 14 14 12 11 11 12 12 13 13 14 13 11 10 10 11 11 11 13
16 16 17 17 18 17 16 16 16 16 18 15 16 15 14 13 13 13 13 13 13 14 15 15 14 15 14 14 11 11 11 11 13 14 13 12 11 10 11 10 11 12 13
17 18 18 19 20 20 19 18 18 18 19 18 18 19 19 16 14 14 14 14 14 14 14 14 14 15 15 14 13 13 13 13 13 13 13 12 11 11 12 13 11 13 13
19 19 20 21 21 21 21 22 20 19 18 19 19 19 20 21 20 19 17 16 15 14 15 15 15 16 15 15 12 12 13 15 14 16 16 14 14 14 14 14 13 13 13
21 22 22 22 23 23 24 24 23 21 21 20 20 20 21 22 22 22 21 14 13 12 12 12 15 20 13 12 12 11 11 12 12 15 15 15 15 15 15 15 14 14 14

GFSMW_con_lsi_123.txt.gz
Lid_Strength_Index
7 5 4 3 3 3 2 2 1 1 1 1 2 2 2 2 2 2 2 1 1 1 1 1 2 2 2 1 1 1 1 2 2 4 4 5 5 5 5 5 5 6 7
9 7 5 4 3 3 2 2 1 1 1 1 1 1 1 2 2 2 2 2 2 1 1 1 2 2 2 2 1 1 2 2 3 4 4 5 5 7 6 6 6 6 8
9 8 8 5 3 3 3 3 2 1 1 1 1 3 3 4 3 3 3 3 2 2 1 1 1 2 2 1 0 1 2 2 3 3 3 6 6 7 8 8 7 7 8
9 8 8 8 4 3 3 2 2 2 1 0 1 2 2 3 3 3 3 3 3 3 2 2 1 1 1 0 0 1 1 1 2 3 3 3 4 6 7 9 9 8 8
7 8 8 8 6 3 2 2 2 2 2 2 1 2 2 1 1 2 3 3 3 3 3 2 2 1 0 0 -0 1 1 1 1 2 3 3 4 6 6 5 8 10 8
7 7 7 7 8 6 2 2 2 2 2 2 2 2 2 2 2 2 3 3 3 3 3 3 2 2 1 0 0 0 1 1 1 1 1 3 5 6 6 8 5 8 9
8 7 7 7 8 8 5 2 2 2 1 2 2 2 2 2 2 2 3 3 4 3 3 3 3 2 2 1 1 1 1 1 1 1 1 1 2 3 7 6 6 9 9
9 8 7 6 6 6 6 3 2 2 2 2 2 1 1 1 2 2 2 2 2 3 3 3 3 2 2 2 1 1 1 1 1 1 1 1 2 2 4 5 5 8 9
8 8 8 7 7 7 6 4 3 2 2 2 2 1 1 1 1 1 1 2 2 2 2 3 3 2 2 2 2 2 2 1 2 2 2 2 2 2 3 3 4 5 6
10 9 9 9 8 7 7 6 4 3 2 1 2 2 1 1 1 1 1 1 1 2 3 3 3 2 2 2 2 1 2 2 2 2 2 2 2 2 2 3 4 4 5
10 11 11 11 11 10 10 8 5 3 2 2 2 2 2 1 1 1 1 1 2 2 3 3 3 2 2 2 2 2 2 3 3 2 3 3 2 3 3 3 3 5 5
11 11 12 12 12 11 11 9 7 5 3 3 2 2 2 1 1 2 1 2 2 2 2 3 3 3 2 2 3 3 3 3 3 3 3 3 3 3 3 4 5 6 7
10 10 10 11 12 12 11 11 9 6 4 4 4 4 3 2 2 2 2 2 2 3 3 3 3 3 3 3 3 2 2 2 3 3 3 3 3 5 4 7 8 9 11
11 10 10 10 10 11 11 11 10 10 9 7 5 5 5 4 4 4 4 4 3 3 3 3 3 3 3 2 2 2 2 2 3 4 6 7 7 7 7 8 9 11 12
9 9 10 10 10 10 10 10 11 10 10 10 10 10 9 9 8 8 7 8 8 7 6 5 5 6 7 8 6 5 6 6 7 8 9 9 11 10 9 10 11 11 12
9 10 10 10 10 10 10 11 11 11 10 10 10 10 10 9 8 9 9 9 9 10 10 10 10 10 10 10 10 8 8 9 9 10 11 11 13 11 9 9 9 9 11
8 9 9 9 9 10 11 10 10 11 11 11 12 12 11 11 11 11 11 11 11 11 11 11 11 11 11 10 10 10 9 10 10 11 11 12 12 11 10 9 9 9 9
7 7 9 10 10 11 10 10 10 11 12 13 13 12 12 12 12 11 12 12 12 12 12 12 12 12 12 11 10 11 10 11 11 11 11 11 11 11 11 11 12 12 12
6 6 6 9 10 10 11 11 12 13 13 13 13 13 12 13 12 12 12 12 13 13 13 13 14 14 14 11 10 12 13 13 13 13 12 11 11 11 11 12 13 13 13
6 6 9 10 10 11 12 13 13 13 13 13 13 13 13 13 13 13 13 14 14 14 14 15 15 15 14 10 11 13 14 14 13 13 13 12 12 11 10 12 13 13 13
10 11 11 11 12 13 13 13 14 14 14 14 14 14 14 14 13 14 14 14 14 14 14 15 15 14 14 13 12 12 13 13 14 14 14 13 11 11 10 11 12 12 12
13 13 14 14 14 14 14 14 14 15 15 15 14 14 14 14 14 14 14 14 14 14 14 14 15 15 14 12 11 10 11 12 13 13 13 13 10 10 10 11 10 10 12
15 15 15 16 16 15 14 15 16 16 16 14 14 14 14 14 14 14 14 14 14 14 15 15 14 15 14 12 11 11 11 12 13 13 12 11 10 10 10 10 10 12 12
17 17 16 18 19 19 18 18 17 16 15 15 15 15 15 15 15 14 14 14 14 14 14 14 15 15 14 14 13 13 13 13 13 12 12 11 11 11 12 12 12 12 13
18 19 19 20 21 21 21 21 19 18 17 17 17 17 17 16 17 16 15 15 15 14 15 15 15 15 15 14 12 12 14 14 14 15 15 13 13 14 14 14 13 13 13
20 21 22 22 23 23 24 23 21 19 19 20 19 19 19 19 17 16 15 13 13 13 13 13 15 14 12 11 11 11 12 12 13 17 16 16 16 16 16 15 15 15 15